Location: Dover
(39.1580°N, 75.5250°W)
Time: 15:50:20
(UTC-04:00)

Daily predictions for brighter satellites

Satellite Brightness Start Highest point End
(mag) Time Altitude Azimuth Time Altitude Azimuth Time Altitude Azimuth
Meteor 1-27 Rocket 4.3 20:38:12 10° N 20:43:20 38° ENE 20:48:25 10° SE
CZ-3C R/B 4.2 20:02:04 10° SW 20:47:18 30° S 20:56:07 10° SE
Abrixas 4.4 20:48:57 10° SSE 20:50:26 13° SE 20:51:55 10° ESE
ATLAS 5 CENTAUR R/B 3.1 20:44:52 10° NW 20:50:49 55° WSW 20:57:05 10° SSE
Cosmos 2154 Rocket 4.3 20:45:25 10° SSE 20:51:15 44° E 20:57:05 10° NNE
H-2A R/B 3.0 20:48:48 10° S 20:52:29 71° W 20:56:14 10° NNW
H-2A R/B 3.1 20:52:56 10° SE 20:56:38 29° ENE 21:00:17 10° N
Cosmos 2184 Rocket 4.1 20:51:10 10° S 20:57:19 81° W 21:03:33 10° N
YAOGAN 11 4.2 20:54:48 10° SSE 20:59:17 67° ENE 21:03:50 10° N
Cosmos 1782 2.8 20:56:10 10° N 21:00:13 83° E 21:04:16 10° S
Cosmos 1174 3.1 20:58:42 10° NNW 21:01:52 66° ENE 21:04:32 12° SE
Cosmos 1408 3.3 20:59:01 10° SSE 21:02:20 34° E 21:05:40 10° NNE
Cosmos 676 Rocket 4.1 20:57:13 10° NNW 21:02:24 64° ENE 21:07:36 10° SSE
Cosmos 1954 Rocket 4.3 21:00:32 10° N 21:05:38 53° ENE 21:10:35 11° SE
Okean 3 4.2 21:06:01 10° N 21:09:59 36° ENE 21:13:22 13° SE
Atlas Centaur 2 3.0 21:08:12 10° SW 21:10:28 16° SSW 21:12:28 11° SSE
COS B Rocket 3.6 21:07:55 10° NNE 21:11:38 40° E 21:14:38 12° SSE
Meteor 2-6 Rocket 4.4 21:06:41 10° N 21:12:37 82° W 21:18:24 10° S
CZ-4 DEB 3.1 21:10:36 10° S 21:13:44 65° WSW 21:16:53 10° NNW
Cosmos 1833 Rocket 4.3 21:11:40 10° N 21:15:50 21° NE 21:19:33 12° E
Cosmos 1844 Rocket 3.7 21:13:13 10° SW 21:18:42 51° WNW 21:24:13 10° NNE
Cosmos 1825 2.2 21:15:29 10° S 21:19:14 61° E 21:23:01 10° NNE
Cosmos 1939 Rocket 2.8 21:15:56 11° SSE 21:19:34 65° ENE 21:23:29 10° N
Cosmos 2278 Rocket 2.2 21:15:07 10° SSW 21:20:47 81° ESE 21:26:29 10° NNE
GPS 2-05 Rocket1 3.3 21:18:10 10° WSW 21:21:46 48° S 21:24:07 19° ESE
Cosmos 1674 Rocket 4.4 21:19:36 10° NNW 21:23:56 53° W 21:28:13 10° S
Cosmos 1844 4.4 21:21:19 10° SW 21:27:00 60° WNW 21:32:45 10° NNE
ALOS 4.2 21:23:19 10° SSW 21:27:18 28° W 21:31:20 10° NW
Okean 2 Rocket 3.2 21:27:42 10° S 21:32:01 55° E 21:36:20 10° NNE
Envisat 3.0 21:31:58 12° SSE 21:36:38 87° ENE 21:41:44 10° NNW
SEDSat Delta rocket 4.0 21:34:44 10° SW 21:38:16 24° S 21:39:01 22° SSE
PSLV R/B 3.7 21:38:39 32° ESE 21:39:22 38° ENE 21:42:09 10° N
Cosmos 1782 Rocket 3.5 21:35:22 10° S 21:39:49 85° E 21:44:19 10° N
Cosmos 2082 Rocket 2.9 21:36:30 10° N 21:41:51 40° ENE 21:44:56 22° ESE
Cosmos 614 Rocket 4.3 21:37:23 10° N 21:42:20 48° ENE 21:45:01 25° SE
CZ-4 SHROUD 3.7 21:41:47 33° ESE 21:42:35 40° ENE 21:45:31 10° N
Intercosmos 25 3.1 21:43:01 25° SSE 21:44:46 51° E 21:47:51 10° NNE
Nadezhda 3 Rocket 4.2 21:38:37 10° N 21:44:58 75° W 21:51:19 10° S
OAO 3 Rocket 3.7 21:41:08 10° SW 21:45:48 41° SSE 21:48:02 26° ESE
Cosmos 2218 Rocket 4.3 21:41:56 17° SSE 21:46:41 48° E 21:52:47 10° NNE
ERS-1 Rocket 3.8 21:43:42 10° S 21:48:33 48° W 21:53:25 10° NNW
Cosmos 1420 Rocket 4.0 21:43:58 10° SSW 21:49:13 85° WNW 21:54:28 10° NNE
APEX 3.5 21:46:02 10° SSW 21:49:52 89° WNW 21:54:57 10° NNE
COSMOS 2487 3.3 21:49:05 10° NNW 21:52:35 48° WSW 21:54:41 21° S
DNEPR-1 R/B 3.7 21:48:02 10° NNW 21:53:20 86° NE 21:55:33 31° SSE
Meteor 1-14 Rocket 4.3 21:48:54 16° S 21:53:25 59° E 21:58:53 10° NNE
Cosmos 1975 Rocket 3.1 21:51:23 10° N 21:55:44 78° W 21:58:29 22° S
Cosmos 1140 Rocket 3.5 21:51:47 10° NNW 21:56:56 79° WSW 22:00:07 24° S
USA 234 4.4 21:53:19 10° ENE 21:56:42 21° ESE 21:56:42 21° ESE
Cosmos 2297 3.6 21:52:34 10° SSW 21:58:16 83° ESE 22:04:01 10° NNE
Cosmos 1727 Rocket 4.4 21:55:37 10° N 22:01:28 43° ENE 22:04:02 29° SE
Terra 3.3 22:01:13 19° E 22:02:17 21° ENE 22:05:48 10° NNE
NOAA 11 4.4 22:01:15 30° SE 22:03:46 54° ENE 22:09:07 10° N
CZ-4B R/B 3.4 22:02:16 10° NNE 22:07:07 60° ESE 22:09:18 31° S
ISS -0.5 22:04:46 10° WNW 22:07:15 20° NNW 22:09:45 10° NNE
MetOp-B 4.1 22:04:32 25° S 22:07:46 84° WSW 22:13:09 10° NNW
Cosmos 1536 Rocket 4.0 22:04:21 10° N 22:08:39 43° E 22:09:30 39° ESE
H-2A R/B 3.0 22:11:12 29° E 22:12:44 34° ENE 22:17:28 10° N
NOSS 8 (F) 4.3 22:11:48 32° SSW 22:13:16 80° ESE 22:16:54 10° NE
Cosmos 1238 Rocket 4.4 22:11:04 10° NNW 22:14:09 29° W 22:17:07 13° SSW
SPOT 5 3.6 22:14:02 20° S 22:17:33 55° W 22:22:50 10° NNW
SL-8 Rocket 4.1 22:13:59 12° S 22:19:50 78° W 22:26:06 10° N
Abrixas 3.8 22:23:04 10° WSW 22:24:56 33° WSW 22:24:56 33° WSW
USA 245 3.2 22:25:48 62° SSW 22:26:14 71° W 22:30:24 10° NNW
Cosmos 2369 Rocket 4.0 22:29:38 15° ENE 22:29:38 15° ENE 22:31:23 10° ENE
SPOT 1/Viking Rocket 3.6 22:26:12 38° S 22:28:17 79° WSW 22:33:32 10° NNW
ARGOS 3.1 22:27:48 40° SSE 22:29:48 87° WSW 22:35:11 10° NNW
Cosmos 1242 Rocket 4.2 22:26:45 10° NNW 22:30:01 30° W 22:31:23 23° SW
Gbstr 26 Del rocket 4.4 22:25:22 10° NW 22:30:02 34° NNE 22:31:42 26° ENE
Lacrosse 5 2.5 22:31:52 37° E 22:31:52 37° E 22:35:22 10° NE
Timation 2 Rocket 4.4 22:25:29 10° NW 22:31:14 50° WSW 22:34:07 28° SSW
H-2A R/B 4.1 22:29:41 12° SW 22:32:38 22° W 22:35:57 10° NW
YAOGAN 6 3.7 22:33:23 32° WSW 22:34:03 35° W 22:37:19 10° NNW
Cosmos 2151 Rocket 4.0 22:36:40 33° SSW 22:38:31 61° W 22:43:01 10° N
CZ-4C R/B 3.5 22:38:45 60° ENE 22:38:45 60° ENE 22:42:40 10° N
USA 229 DEB 3.8 22:40:40 10° NW 22:47:47 78° WSW 22:50:15 45° SSE
USA 229 3.8 22:40:46 10° NW 22:47:54 78° WSW 22:50:21 45° SSE
Cosmos 1300 Rocket 3.6 22:49:12 66° ENE 22:49:12 66° ENE 22:53:19 10° NNE
ASTEX 1 3.8 22:47:06 10° NNE 22:51:33 47° ENE 22:51:33 47° ENE
Meteor 1-20 Rocket 4.1 22:50:15 46° SSW 22:52:01 84° W 22:57:34 10° N
Timation 1 Rocket 4.5 22:48:54 17° SSW 22:53:38 73° WNW 22:59:39 10° NNE
Okean 1 Rocket 3.2 22:56:16 63° NE 22:56:16 63° NE 23:00:13 10° NNE
Cosmos 1833 Rocket 3.0 22:54:39 10° NNW 23:00:09 58° WSW 23:01:16 49° SSW
Cosmos 1331 Rocket 4.3 23:05:38 41° SW 23:07:14 62° WNW 23:12:22 10° NNE
Cosmos 1535 Rocket 4.5 23:12:04 62° ESE 23:12:40 65° E 23:19:01 10° NNE
Okean 1-7 Rocket 3.9 23:09:18 10° N 23:13:10 65° N 23:13:10 65° N
Okean 1 4.2 23:11:16 10° NNW 23:14:37 48° WNW 23:14:37 48° WNW
DMSP B5D2-2 4.2 23:14:49 10° N 23:20:01 71° WNW 23:20:37 64° WSW
Cosmos 2082 Rocket 3.6 23:21:00 10° NW 23:25:42 27° WSW 23:26:48 25° WSW
ATLAS 2AS CENTAUR R/B 4.3 23:19:42 10° NNW 23:26:45 31° NE 23:30:50 20° E
NOSS 3-1 (C) 4.0 23:27:37 10° NNW 23:35:18 86° ENE 23:37:00 61° SE
Cosmos 1000 Rocket 4.4 23:30:53 10° N 23:37:09 75° W 23:37:43 70° SW
Meteor 2-4 Rocket 3.9 23:32:13 10° N 23:37:12 62° NE 23:37:12 62° NE
Terra 2.8 23:40:06 39° W 23:40:06 39° W 23:44:12 10° NNW
Cosmos 2239 Rocket 4.5 23:40:40 69° SW 23:41:20 77° W 23:47:41 10° N
USA 234 3.1 23:35:06 10° NE 23:41:41 88° NW 23:43:56 45° SW
BREEZE-M TANK 3.4 23:35:55 10° WNW 23:42:07 50° NNW 23:42:07 50° NNW
Cosmos 1354 Rocket 4.2 23:40:29 10° NNW 23:45:03 67° N 23:45:03 67° N
H-2A R/B 3.5 23:51:51 29° W 23:52:06 29° W 23:56:42 10° NW
